Aérodrome :
LOGIN :

S'inscrire | Disclaimer

   EN    FR    IT 

 










Légende :    VFR   VFR Marginal   IFR   IFR Intensif   IFR Très Intensif
Visi : 
Plafond : 
>= 8 km
>= 3000ft
5 à 8 km
1000 à 3000 ft
1500m à 5 km
500 à 1000 ft
800 à 1500m
200 à 500 ft
< 800m
< 200 ft
Symboles :   Orages  Brouillard  Fortes neiges  Fortes précipitations  Vent > 20 kt
SIGMETs :   Divers  Orages  Givrage  Turbulence  Onde Orograph.  Cendres Volcan.







- Altitude de l'aérodrome : 1411 ft
- Code IATA : GVA


LSGG - Genève Cointrin

DERNIER METAR :
  • 211320Z 05008KT CAVOK 11/M01 Q1029 NOSIG

METARs EXPIRÉS :
  • 211250Z 02008KT CAVOK 11/M03 Q1029 NOSIG
  • 211220Z 05008KT 010V070 CAVOK 10/M03 Q1029 NOSIG
  • 211150Z 06009KT CAVOK 09/M02 Q1030 NOSIG
  • 211120Z 06009KT 020V090 CAVOK 09/M02 Q1030 NOSIG

TAF TAF LSGG
Valide du 21 à 12h jusqu'au 22 à 18h UTC


211125Z 2112/2218 05010KT CAVOK TX14/2115Z TNM00/2206Z TX17/2206Z
BECMG 2116/2118 VRB03KT
ATIS : +41 22 417 40 81
Pas de NOTAMs connus pour ce terrain.



MET'MAP, la Météo Aéronautique d'un coup d'oeil ! - Copyright ORBIFLY Décembre 2007 - Disclaimer

ORBIFLY MET'MAP TEAM :

Programmation & Développement : Alexandra Zaïnal
Conception & Développement : Baudouin d'Aumeries
Co-Programmation & Développement : Marc-Olivier Méhu
Soutien technique & logistique : Manuel Goepfert

Contact : metmap@orbifly.com




SOURCES & CREDITS :

   NOAA